Hourly Data Report for September 23, 2017

TORONTO INTL A
ONTARIO

43°40'36.000" N
79°37'50.000" W
173.40 m
6158731
71624
YYZ

Download Data

Hourly Data (September 2017)
Hourly Data Report for September 23, 2017
TIME
LST
Temp Definition
°C
Dew Point Definition
°C
Rel Hum Definition
%
Precip. Amount Definition
mm

Wind Dir Definition
10's deg

Wind Spd Definition
km/h
Visibility Definition
km
Stn Press Definition
kPa
Hmdx Definition


Wind Chill Definition


Weather Definition


00:00 20.1 11.7 58   30 8 24.1 99.83     LegendNANA
01:00 19.6 11.8 60   24 4 24.1 99.81     Clear
02:00 20.1 10.8 55   18 5 24.1 99.72     LegendNANA
03:00 18.8 10.8 59   26 5 24.1 99.75     LegendNANA
04:00 17.8 11.0 64   24 4 24.1 99.76     Clear
05:00 18.5 11.0 61   26 5 24.1 99.81     LegendNANA
06:00 17.9 12.2 69   36 1 24.1 99.88     LegendNANA
07:00 19.4 13.4 68   23 4 24.1 99.92     Mainly Clear
08:00 23.6 15.2 58   26 7 24.1 99.96 28   LegendNANA
09:00 25.8 15.4 52   25 12 24.1 99.97 30   LegendNANA
10:00 28.0 15.5 46   27 5 24.1 99.97 32   Mainly Clear
11:00 30.8 14.1 36   29 9 24.1 99.96 34   LegendNANA
12:00 31.4 14.6 35   33 5 24.1 99.94 35   LegendNANA
13:00 31.2 16.7 41   10 5 24.1 99.89 36   Mainly Clear
14:00 32.5 17.4 40   31 11 24.1 99.85 38   LegendNANA
15:00 32.5 17.7 41   32 12 24.1 99.79 38   LegendNANA
16:00 31.4 17.6 43   17 11 24.1 99.76 37   Mainly Clear
17:00 30.2 17.6 46   15 14 24.1 99.76 36   LegendNANA
18:00 29.6 17.6 48   14 8 24.1 99.77 35   LegendNANA
19:00 28.4 17.8 52   17 3 24.1 99.79 34   Clear
20:00 27.7 18.2 56   34 4 24.1 99.81 34   LegendNANA
21:00 26.2 18.6 62   30 10 24.1 99.82 33   LegendNANA
22:00 25.3 18.8 67   32 14 24.1 99.85 32   Clear
23:00 24.9 19.3 71   33 9 24.1 99.85 32   LegendNANA

Notes on Data Quality.

Legend

  • E = Estimated
  • M = Missing
  • NA = Not Available*
  • [empty] = Indicates an unobserved value
Date modified: